Regional Weather Roundup
Issued by NWS

Home | Current Version | Previous Version | Graphics & Text | Print | Product List | Glossary On
Versions: 1 2 3 4 5 6 7 8 9 10 11 12 13 14 15 16 17 18 19 20 21 22 23 24 25 26 27 28 29 30 31 32 33 34 35 36 37 38 39 40 41 42 43 44 45 46 47 48 49 50
000
ASUS43 KMKX 041011
RWRWI

WISCONSIN REGIONAL WEATHER ROUNDUP
NATIONAL WEATHER SERVICE MILWAUKEE/SULLIVAN WI
500 AM CDT SAT JUL 04 2015

NOTE: "FAIR" INDICATES FEW OR NO CLOUDS BELOW 12,000 FEET WITH NO
SIGNIFICANT WEATHER AND/OR OBSTRUCTIONS TO VISIBILITY.

WIZ001-002-006>008-014>016-023>028-041100-
NORTHWEST WISCONSIN

CITY           SKY/WX    TMP DP  RH WIND       PRES   REMARKS
SUPERIOR ARPT  CLEAR     59  56  90 E6        29.95R
ASHLAND        FOG       53  53 100 CALM      29.94R VSB 1/4
HAYWARD        FOG       54  53  97 CALM      29.95R VSB 1/2
SIREN          FOG       55  54  97 CALM      29.94S VSB 1/4
CUMBERLAND     CLEAR     57  55  94 CALM      29.94S FOG
RICE LAKE      FOG       57  56  97 CALM      29.95S VSB<1/4
CHETEK         CLEAR     58  58  99 CALM      29.94R FOG
LADYSMITH        N/A     55  54  96 CALM      29.96S FOG
EAU CLAIRE     CLEAR     61  56  83 CALM      29.93R
MENOMONIE      CLEAR     59  58  95 CALM      29.94R
NEW RICHMOND   CLEAR     60  59  97 CALM      29.94S
OSCEOLA        CLEAR     57  57 100 CALM      29.96S
$$

WIZ003>005-009-010-017-018-041100-
NORTH CENTRAL WISCONSIN

CITY           SKY/WX    TMP DP  RH WIND       PRES   REMARKS
MANITOWISH WTR FOG       52  52 100 CALM      29.95S VSB 1/2
ARBOR VITAE    PTCLDY    55  53  95 CALM      29.95S FOG
WOODRUFF       PTCLDY    55  53  95 CALM      29.95S FOG
RHINELANDER    FOG       51  51 100 CALM      29.96R VSB 1/4
EAGLE RIVER    FOG       49  49 100 CALM      29.95R VSB 3/4
LAND O LAKES   FOG       49  49 100 CALM      29.97R VSB 1/4
PHILLIPS       FOG       52  52 100 CALM      29.94S VSB 1
TOMAHAWK       FOG       51  50  97 CALM      29.96R VSB 1/2
MEDFORD        CLEAR     53  53 100 CALM      29.95R FOG
MERRILL        FOG       52  52 100 CALM      29.95S VSB 1/4
$$

WIZ029-030-035-036-043>047-041100-
CENTRAL WISCONSIN

CITY           SKY/WX    TMP DP  RH WIND       PRES   REMARKS
WAUSAU         CLEAR     58  56  93 CALM      29.93R
MOSINEE        CLEAR     55  55 100 CALM      29.96R
MARSHFIELD     CLEAR     59  55  87 SW5       29.95R
STEVENS POINT  CLEAR     53  52  95 CALM      29.95R
WAUPACA        CLEAR     58  58  98 CALM      29.94R
WAUTOMA        CLEAR     56  56 100 CALM      29.95R
WISC RAPIDS    MOCLDY    59  56  89 CALM      29.96R
CAMP DOUGLAS   FOG       54  54 100 E1        29.95R VSB 3/4
$$

WIZ011>013-019>022-031-037>040-048>050-041100-
NORTHEAST WISCONSIN

CITY           SKY/WX    TMP DP  RH WIND       PRES   REMARKS
ANTIGO         CLEAR     54  54 100 CALM      29.95S FOG
SHAWANO        PTCLDY    61  58  91 CALM      29.93R
OCONTO         CLOUDY    56  56 100 CALM      29.91R
STURGEON BAY   MOCLDY    61  55  82 CALM      29.93R
GREEN BAY      MOCLDY    61  58  90 CALM      29.92R
MANITOWOC      CLEAR     64  59  83 MISG      29.92S
APPLETON       PTCLDY    61  59  94 W8        29.94R
CLINTONVILLE   PTCLDY    61  55  82 CALM      29.93R
OSHKOSH        CLEAR     63  58  83 W6        29.93R
$$

WIZ032>034-041-042-053>061-041100-
SOUTHWEST WISCONSIN

CITY           SKY/WX    TMP DP  RH WIND       PRES   REMARKS
LA CROSSE      CLOUDY    63  61  93 SE3       29.95R
SPARTA         CLOUDY    55  53  94 CALM      29.96R
VIROQUA        CLEAR     59  59 100 SW5       29.97R
BOSCOBEL       MOCLDY    57  55  93 CALM      29.97R FOG
PRAIRIE DU CHI CLEAR     57  55  94 CALM      29.97S
PLATTEVILLE    CLEAR     59  55  87 CALM      29.98S
$$

WIZ056-057-062-063-064-067-068-041100-
SOUTH CENTRAL WISCONSIN

CITY           SKY/WX    TMP DP  RH WIND       PRES   REMARKS
REEDSBURG      CLEAR     55  55  99 CALM      29.96R
BARABOO/DELLS  CLEAR     57  55  91 SW5       29.96R
LONE ROCK      MOCLDY    54  52  93 CALM      29.97S FOG
MINERAL POINT  CLEAR     59  54  82 SW5       29.98R
MADISON        CLEAR     56  54  93 CALM      29.96R FOG
MIDDLETON      CLEAR     56  55  97 CALM      29.97S
WATERTOWN      CLEAR     54  54 100 CALM      29.95S
MONROE         CLEAR     61  52  72 W12       29.97S
JANESVILLE     CLEAR     55  54  94 CALM      29.96S
$$

WIZ051-052-058>065-066-070>072-041100-
SOUTHEAST WISCONSIN

CITY           SKY/WX    TMP DP  RH WIND       PRES   REMARKS
MILWAUKEE      PTCLDY    60  54  80 SW3       29.95S
WAUKESHA       CLEAR     54  52  94 CALM      29.97R
MILWAUKEE/TIMM CLEAR     57  52  82 CALM      29.95S
RACINE         CLEAR     60  54  80 W6        29.97R
BURLINGTON     CLEAR     51  50  99 CALM      29.97R FOG
KENOSHA        CLEAR     55  53  93 SW5       29.96R FOG
FOND DU LAC    CLEAR     60  57  89 SW3       29.94S
SHEBOYGAN      PTCLDY    59  56  89 W5        29.93R
WEST BEND      CLEAR     55  52  88 CALM      29.95R
JUNEAU         CLEAR     56  54  91 SW3       29.96S
$$

LSZ147-162-041100-
LAKE SUPERIOR

STATION/POSITION TIME  TEMP    WIND        PRES    WAVE
                       AIR SEA DIR/SP/G            HT/PER
                 (UTC) (F)     (DEG/KT/KT) (MB)    (FT/S)
W MID LAKE BUOY  0950   40 38   10/  4/  4 1014.3R   0
DEVILS ISLAND    1000   57      30/  4/  5 1014.2R
SAXON HARBOR     0940   57        CALM     1013.5R
$$

LMZ867-665-643>646-041100-
LAKE MICHIGAN

STATION/POSITION TIME  TEMP    WIND        PRES    WAVE
                       AIR SEA DIR/SP/G            HT/PER
                 (UTC) (F)     (DEG/KT/KT) (MB)    (FT/S)
CHAMBERS ISLAND  0900   61     230/  1/  3 1012.5R
N MID LAKE BUOY  0950   49 43   CALM  /  2 1012.9R   1/ 4
NORTHPORT PIER   0900   62      CALM  /  2 1012.2R
SISTER BAY       0914   63        CALM       N/A
ALGOMA LAKESHORE 0926          300/  1/  4   N/A
KEWAUNEE LAKESHO 0900   60     300/  6/  8 1011.8F
SHEBOYGAN LAKESH 1000   64     260/ 11/ 12 1013.4R
PORT WASHINGTON  0940   64     280/  7/ 11 1013.9F
ATWATER BUOY     1000   63 60  240/  6/  8 1015.1F
MILWAUKEE LAKESH 0900   64     250/  2/  3   N/A
KENOSHA   LAKESH 1000   63     250/  7/  8 1014.2R
$$

TC  - TEMPERATURE IN CELSIUS
VSB - VISIBILITY IN STATUTE MILES
WCI - WIND CHILL INDEX
HX  - HEAT INDEX



USA.gov is the U.S. government's official web portal to all federal, state and local government web resources and services.